HULIANWANG DIGUI-64

导读

“互联网地球(HULIANWANG DIGUI)-64”卫星由中国于2025年8月13日发射。作为中国低轨互联网星座组网卫星,它主要服务天地一体化网络建设,可提供全球覆盖的高速互联网接入服务,能为偏远地区通信、海洋监测、应急救援等领域,提供稳定可靠的网络支撑。

基本信息
目录编号:
65170
目录名称:
HULIANWANG DIGUI-64
国际标识:
2025-174G
轨道中心:
EARTH
卫星名称:
HULIANWANG DIGUI-64
卫星全名:
HULIANWANG DIGUI-64
卫星状态:
在轨 (已飞行348 天)
发射日期:
2025-08-13 UTC
国别 :
中国 (CN)
星等 :
--
轨道信息
数据来源 国际轨道数据 AOE轨道数据
星历时间 2026-07-27T21:53:54+0800
9小时前
查看轨道信息
2026-07-28T00:00:00+0800
7小时前
查看轨道信息
半长轴 7546.066km 7546.063km
偏心率 0.0001963 0.0001835
轨道倾角 86.489° 86.490°
近地点辐角 103.981° 91.435°
升交点赤经 238.254° 238.226°
平近点角 256.155° 325.963°
近地点 1166.447km 1166.541km
远地点 1169.411km 1169.311km
周期 108.728分钟 108.728分钟
每日圈数 13.244083 13.244092
详细信息
使用方式:
暂无
2D轨道图
3D轨道图
轨道高度分析图
轨道倾角分析图
轨道综合分析图
查看轨道综合分析图